Regional Weather Roundup
Issued by NWS

Home | Current Version | Previous Version | Graphics & Text | Print | Product List | Glossary Off
Versions: 1 2 3 4 5 6 7 8 9 10 11 12 13 14 15 16 17 18 19 20 21 22 23 24 25 26 27 28 29 30 31 32 33 34 35 36 37 38 39 40 41 42 43 44 45 46 47 48 49 50

000
ASUS43 KTOP 170159
RWRKS

WEATHER ROUNDUP FOR KANSAS
NATIONAL WEATHER SERVICE GOODLAND KS
900 PM CDT TUE SEP 16 2014

NOTE:  "FAIR" INDICATES FEW OR NO CLOUDS BELOW 12,000 FEET WITH NO
SIGNIFICANT WEATHER AND/OR OBSTRUCTIONS TO VISIBILITY.

KSZ001>006-013>018-027>032-041>047-170300-
NORTHWEST KANSAS

CITY           SKY/WX    TMP DP  RH WIND       PRES   REMARKS
GOODLAND       CLEAR     70  50  49 N6        30.03R
HAYS           CLEAR     70  61  73 SE7       29.96R
HILL CITY      CLEAR     68  60  75 E9        29.96R
RUSSELL        CLEAR     69  62  78 SE10      29.95S
$$

KSZ061>065-074>080-084>089-170300-
SOUTHWEST KANSAS

CITY           SKY/WX    TMP DP  RH WIND       PRES   REMARKS
DODGE CITY     CLEAR     75  60  59 S12       30.00R
ELKHART          N/A     70  58  66 S8          N/A
GARDEN CITY    CLEAR     71  60  68 S7        29.99R
GREAT BEND     CLEAR     72  61  68 S12       29.97S
LIBERAL        CLEAR     75  57  53 SW10      30.04R
$$

KSZ066>073-081>083-090>101-170300-
SOUTHEAST KANSAS

CITY           SKY/WX    TMP DP  RH WIND       PRES   REMARKS
CHANUTE        CLEAR     68  63  84 SE7       30.02S
COFFEYVILLE    CLEAR     69  65  86 SE7       30.02S
HUTCHINSON     CLEAR     71  62  73 SE8       29.99S
NEWTON         CLEAR     70  57  64 S7        30.03R
PARSONS        PTCLDY    68  66  93 E3        30.03F
WICHITA INTL   PTCLDY    72  64  76 S13       30.00R
WICHITA JABRA  CLEAR     71  64  78 S9        30.01R
WINFIELD       CLEAR     69  65  86 SE7       30.03R
$$

KSZ007>012-019>026-033>040-048>060-102>105-170300-
NORTHEAST KANSAS

CITY           SKY/WX    TMP DP  RH WIND       PRES   REMARKS
CONCORDIA      PTCLDY    60  56  86 CALM      30.00S
EMPORIA        CLEAR     66  61  84 SE7       30.01R
LAWRENCE       MOCLDY    61  56  83 SE6       30.03S
MANHATTAN      CLEAR     63  55  75 E5        30.00S
OLATHE IND     PTCLDY    64  57  78 SE5       30.05R
OLATHE EXE     PTCLDY    64  56  75 SE6       30.04R
SALINA         CLEAR     71  61  70 E7        29.98S
TOPEKA BILLARD PTCLDY    65  56  72 E3        30.03R
TOPEKA FORBES  PTCLDY    63  55  75 E6        30.02S
$$


USA.gov is the U.S. government's official web portal to all federal, state and local government web resources and services.